Flag for Mexico Weather past 2 weeks in Mexicali, Baja California, Mexico

Now
89 °F

Sunny.


Feels Like: 90 °F
Forecast: 80 / 111 °F
Wind: 3 mph from North

Location: Imperial County Airport

Current Time: Aug 4, 2015 at 10:03:47 AM

Latest Report: Aug 4, 2015 at 8:53 AM


Visibility: 10 mi

Pressure: 29.80 "Hg

Humidity: 43%

Dew point: 64 °F

Location of MexicaliLocation

Historic Weather in Mexicali — Graph

°F

Mexicali temperature yesterday

Maximum temperature yesterday: 111 °F (at 3:53 PM)
Minimum temperature yesterday: 82 °F (at 4:53 AM)
Average temperature yesterday: 96 °F

Past Weeks' High & Low Weather Summary

 TemperatureHumidityPressure
High111 °F (Aug 2, 3:53 PM)70% (Jul 29, 3:53 AM)29.96 "Hg (Jul 29, 3:53 AM)
Low72 °F (Jul 27, 5:53 AM)6% (Jul 27, 3:53 PM)29.61 "Hg (Aug 2, 6:53 PM)
Average93 °F29%29.78 "Hg
* Reported Jul 20 8:53 AM — Aug 4 8:53 AM, Mexicali, Weather by CustomWeather, © 2015

Note: Actual official high and low records may vary slightly from our data, if they occured in-between our weather recording intervals... More about our weather records

Advertising

Mexicali weather history for previous 24 hours

 ConditionsComfort  
Time TempWeatherWind HumidityBarometerVisibility
8:53 AM
Tue, Aug 4
89 °FSunny.3 mph43%29.80 "Hg10 mi
7:53 AM85 °FSunny.3 mph39%29.78 "Hg10 mi
6:53 AM80 °FClear.3 mph39%29.77 "Hg10 mi
5:53 AM77 °FClear.No wind42%29.75 "Hg10 mi
4:53 AM78 °FClear.6 mph42%29.73 "Hg10 mi
3:53 AM77 °FClear.5 mph47%29.72 "Hg10 mi
2:53 AM83 °FClear.3 mph44%29.71 "Hg10 mi
1:53 AM85 °FClear.No wind36%29.71 "Hg10 mi
12:53 AM85 °FClear.3 mph40%29.71 "Hg10 mi
11:53 PM
Mon, Aug 3
89 °FClear.6 mph26%29.71 "Hg10 mi
10:53 PM93 °FClear.3 mph23%29.70 "Hg10 mi
9:53 PM91 °FClear.3 mph25%29.70 "Hg10 mi
8:53 PM99 °FClear.8 mph16%29.67 "Hg10 mi
7:53 PM103 °FSunny.10 mph12%29.65 "Hg10 mi
6:53 PM108 °FSunny.16 mph11%29.64 "Hg10 mi
5:53 PM110 °FSunny.10 mph15%29.63 "Hg10 mi
4:53 PM111 °FSunny.3 mph8%29.64 "Hg10 mi
3:53 PM111 °FSunny.8 mph12%29.66 "Hg10 mi
2:53 PM110 °FSunny.9 mph12%29.69 "Hg10 mi
1:53 PM107 °FSunny.No wind14%29.71 "Hg10 mi
12:53 PM106 °FSunny.5 mph18%29.73 "Hg10 mi
11:53 AM103 °FSunny.7 mph20%29.75 "Hg10 mi
10:53 AM99 °FSunny.N/A24%29.77 "Hg10 mi
Weather by CustomWeather, © 2015

See weather overviewHow to use our weather pages